Temperature
14 13 13 13 13 13 13 13 14 14 14 14 14 14 14 14 14 14 14 14 14 14 14 14 14 14 14 14 15 15 14 14 15 15 15 15 15 15 15 15 15 15 15
14 13 13 13 13 13 13 13 13 13 14 14 14 13 13 14 14 14 14 14 14 14 14 14 14 14 14 14 14 14 14 14 14 14 14 14 14 14 14 15 15 14 14
13 13 13 13 13 13 13 13 13 13 13 13 13 13 13 13 13 13 13 13 13 14 14 14 14 14 14 14 14 14 14 14 14 14 14 14 14 14 14 14 14 14 14
13 13 13 13 13 12 13 13 13 13 13 13 13 13 13 13 13 13 13 13 13 13 13 13 14 14 14 14 14 14 14 14 14 14 14 14 14 14 14 14 14 14 14
12 12 12 12 12 12 12 12 12 12 12 12 13 13 13 13 13 13 13 13 13 13 13 13 13 13 13 13 13 13 14 14 14 14 14 14 13 13 14 14 14 14 13
12 12 12 12 12 12 12 12 12 12 12 12 12 12 12 12 12 13 12 13 13 13 13 13 13 13 13 13 13 13 13 13 13 14 13 13 13 13 13 13 13 13 13
12 12 12 12 12 12 12 12 12 12 12 12 12 12 12 12 12 12 12 12 12 12 12 12 13 13 13 13 13 13 13 13 13 13 13 13 13 13 13 13 13 13 13
11 11 11 11 11 11 12 12 12 12 12 12 12 12 12 12 12 12 12 12 12 12 12 12 12 13 13 13 13 13 13 13 13 13 13 13 12 13 13 13 13 13 13
11 11 11 11 11 11 11 11 12 12 12 12 12 12 12 12 12 12 12 12 12 12 12 12 12 12 12 12 12 12 12 12 12 12 12 12 12 12 12 12 12 12 12
10 10 11 11 11 11 11 11 11 11 11 12 12 12 12 12 11 11 11 11 12 12 12 12 12 12 12 12 12 12 12 12 12 12 12 11 12 12 11 11 11 12 12
10 10 10 10 11 11 11 11 11 11 11 11 11 11 11 11 11 11 11 11 11 11 11 11 12 12 12 12 11 11 11 11 11 11 11 11 11 11 11 11 11 11 11
9 10 10 10 10 10 10 11 11 11 11 11 11 11 11 11 11 11 11 11 11 11 11 11 11 11 11 11 11 11 11 11 11 11 11 11 11 11 11 10 10 10 10
9 9 9 10 10 10 10 10 10 10 10 11 11 11 11 11 11 11 11 11 11 11 11 11 11 11 11 11 11 11 11 11 11 11 10 10 10 10 10 10 10 10 10
8 9 9 9 9 9 10 10 10 10 10 10 10 10 10 10 10 10 10 10 10 10 10 10 10 10 10 10 10 10 10 10 10 10 10 10 10 10 10 10 10 10 10
8 8 8 9 9 9 9 9 9 10 10 10 10 10 10 10 10 10 10 10 10 10 10 10 10 10 10 10 10 10 10 10 10 10 10 9 9 9 9 9 9 9 9
8 8 8 8 8 8 9 9 9 9 9 9 9 9 9 9 10 9 9 9 9 10 10 10 10 9 9 9 9 9 9 9 9 9 9 9 9 9 9 9 9 9 8
7 7 7 8 8 8 8 8 8 8 8 9 9 9 9 9 9 9 9 9 9 9 9 9 9 9 9 9 9 9 9 9 9 9 9 9 9 9 8 8 8 8 8
7 7 7 7 7 8 8 8 8 8 8 8 8 8 8 8 9 9 9 9 9 9 9 8 8 8 8 8 8 8 8 8 8 8 8 8 8 8 8 8 8 8 8
7 7 7 7 7 7 7 7 7 7 7 8 8 8 8 8 8 8 8 8 8 8 8 8 8 8 8 8 8 8 7 7 8 8 8 8 8 8 8 8 8 8 8
6 6 6 6 6 7 7 7 7 7 7 7 7 7 7 7 7 7 7 8 8 8 8 8 8 7 7 7 7 7 7 7 7 7 7 7 7 7 7 7 7 7 7
6 6 6 6 6 6 6 6 6 6 6 6 7 7 7 7 7 7 7 7 7 7 7 7 7 7 7 7 7 6 6 6 6 7 7 7 7 7 7 7 7 7 7
5 5 5 5 5 5 6 6 6 6 6 6 6 6 6 6 6 6 6 6 6 7 7 7 7 7 6 6 6 6 6 6 6 6 6 6 6 6 6 6 6 6 6
5 5 5 5 5 5 5 5 5 5 5 5 6 6 6 6 6 6 6 6 6 6 6 6 6 6 6 6 6 6 6 6 5 6 6 6 6 6 6 6 6 6 6
4 4 4 4 4 5 5 5 5 5 5 5 5 5 5 5 5 5 5 6 6 5 6 6 6 6 6 6 5 6 6 5 5 5 5 5 5 5 5 5 5 5 5
4 4 4 4 4 4 4 4 4 4 4 4 4 4 5 5 5 5 5 5 5 5 5 5 5 5 5 5 5 5 5 5 5 5 5 5 5 5 5 5 5 5 4
3 3 3 3 4 3 3 4 4 4 4 4 4 4 4 4 4 4 4 5 5 5 5 5 5 5 5 5 5 5 5 5 5 5 5 4 4 4 4 4 4 4 4
Wind_Speed
2 3 5 7 9 9 10 9 10 10 10 11 11 12 11 11 11 11 12 12 12 12 12 13 13 14 15 15 16 16 16 17 17 17 17 17 18 18 18 18 17 17 19
3 5 6 8 9 9 10 10 10 10 11 10 11 11 11 11 11 11 11 11 12 12 12 13 14 14 15 16 16 16 17 17 17 17 17 16 17 18 18 18 17 16 19
4 5 7 9 9 10 10 10 10 10 10 10 10 10 10 10 11 11 11 11 11 12 12 13 13 14 15 16 16 16 16 16 16 16 15 13 15 17 18 18 18 18 18
5 6 7 9 10 10 10 10 10 10 10 10 9 10 10 10 11 11 11 11 11 12 12 13 14 14 15 16 16 16 16 16 16 15 13 12 13 16 17 17 17 17 18
5 5 7 10 10 10 10 9 9 10 10 10 10 9 9 10 11 11 11 11 11 12 13 13 14 14 15 15 15 15 16 16 16 15 13 12 12 15 16 17 17 17 17
4 5 7 10 10 10 10 9 9 9 9 9 9 10 9 10 10 11 11 11 11 12 12 13 14 14 14 15 15 15 15 15 15 14 13 13 13 15 16 17 17 17 17
4 5 6 9 10 10 10 9 9 9 9 8 9 9 9 10 10 11 11 11 12 12 12 12 13 14 14 14 15 15 15 15 15 14 13 13 14 16 16 16 16 16 17
5 5 5 7 9 10 9 9 9 9 9 9 9 9 10 10 10 11 11 11 12 12 12 12 13 13 14 14 15 15 15 14 13 12 13 13 15 16 16 16 16 16 17
6 6 6 6 7 8 9 9 8 9 9 10 10 10 10 10 10 11 11 11 12 12 12 12 13 13 13 14 15 15 15 15 13 11 12 13 16 17 17 17 16 16 17
5 5 6 6 7 7 7 8 8 9 10 10 10 10 9 10 10 11 11 12 12 12 13 13 13 14 14 15 15 16 15 14 13 12 11 13 16 16 17 17 17 16 16
3 3 5 5 6 7 7 8 9 9 10 10 10 10 10 10 11 10 11 12 13 13 13 13 14 14 14 15 15 15 14 12 12 11 11 14 15 16 16 17 17 16 16
1 1 3 4 4 5 6 7 8 8 9 10 10 10 10 10 10 11 11 12 13 13 13 14 14 14 13 13 13 14 12 13 12 10 10 14 14 15 15 15 16 16 16
1 0 1 2 4 4 5 6 6 7 8 9 10 10 10 10 10 10 10 10 12 12 12 13 13 12 12 12 12 12 12 12 11 10 11 13 13 13 14 14 14 14 15
1 1 1 2 3 4 4 5 5 6 6 6 7 9 9 8 8 8 8 9 9 10 11 11 11 12 13 13 13 13 13 11 11 10 11 13 13 12 12 13 13 13 14
1 1 0 1 2 3 4 4 5 5 5 6 7 7 8 7 6 7 7 8 9 10 10 10 10 11 11 11 12 12 12 12 12 11 11 13 12 11 11 12 12 13 13
2 2 0 1 2 3 3 3 4 5 5 6 6 6 7 8 7 7 7 7 8 9 10 10 9 9 9 10 10 11 11 11 12 12 12 12 12 11 11 11 11 12 12
3 2 1 1 2 3 3 3 4 5 6 5 5 6 7 7 8 8 7 6 7 9 11 11 10 10 8 8 8 9 10 11 11 11 11 11 11 11 11 10 10 10 11
2 2 1 0 1 2 3 3 4 4 5 5 6 6 6 7 8 7 7 6 8 9 9 8 7 6 5 5 5 6 8 9 10 10 11 11 11 11 10 10 10 9 9
3 3 2 0 1 2 3 3 4 4 5 5 6 6 5 7 7 7 6 7 8 8 7 6 5 5 5 5 5 5 6 6 7 8 9 10 10 10 10 9 9 9 8
2 2 2 1 1 2 3 3 3 3 3 4 4 5 6 6 7 6 6 7 8 6 5 5 6 5 5 5 5 5 4 5 6 6 6 7 8 8 9 8 9 8 8
1 1 2 2 2 2 3 3 3 3 2 2 2 4 6 6 6 6 5 6 6 5 5 6 6 6 4 4 4 3 3 3 4 4 5 5 6 6 7 7 7 7 7
2 2 2 2 3 3 3 3 2 3 2 2 2 3 4 6 6 5 6 5 6 5 5 6 6 4 2 2 3 4 1 1 2 2 3 3 3 5 5 5 5 5 6
2 3 3 3 3 2 3 3 3 3 2 2 1 1 2 4 6 6 6 6 5 5 6 6 6 6 5 1 1 3 3 3 0 1 1 1 1 2 3 3 3 4 4
3 2 2 3 3 2 3 4 5 3 3 2 2 2 2 3 5 6 6 7 6 5 5 6 5 5 6 4 1 1 1 3 2 1 1 1 1 1 1 1 1 2 2
2 2 2 2 3 2 3 4 4 3 2 1 1 2 2 2 3 5 5 6 6 5 5 6 5 5 4 5 4 2 2 1 1 2 2 2 1 1 1 1 1 1 1
1 1 1 2 2 2 3 3 4 4 3 3 2 3 2 2 2 3 4 5 6 5 5 5 6 6 4 4 4 3 3 3 2 2 2 2 2 2 2 2 2 2 2
Wind_Direction
220 235 180 144 138 131 128 124 120 117 112 111 110 109 108 107 106 100 95 92 93 94 94 94 93 92 89 88 86 84 82 81 82 83 82 84 86 86 84 81 79 78 80
176 183 161 143 140 132 127 125 122 119 116 114 112 109 108 109 109 104 99 95 94 93 93 95 94 93 91 89 86 84 82 81 80 79 79 81 85 87 86 83 83 83 81
137 152 147 139 137 135 129 127 124 122 120 117 114 111 111 110 109 106 103 100 97 95 93 94 96 95 93 91 88 86 84 82 80 76 74 76 84 87 87 85 84 84 84
129 133 139 136 130 130 130 128 127 124 121 120 118 116 115 113 112 109 105 102 100 99 98 97 96 96 94 92 90 88 85 83 78 74 70 72 82 88 88 86 85 85 85
113 123 137 132 129 127 125 127 129 127 124 121 119 117 116 115 114 112 109 106 104 103 101 99 98 95 94 94 92 90 87 83 78 72 69 72 81 89 90 87 86 85 84
96 110 132 130 128 127 125 121 122 128 127 124 121 116 114 116 117 115 111 106 105 105 103 101 100 98 95 94 94 91 88 83 77 71 70 73 81 89 89 88 87 86 85
93 92 122 128 126 125 124 121 120 121 125 127 124 118 114 112 116 114 110 107 107 106 103 103 102 99 98 98 95 92 90 85 78 72 69 74 84 88 88 87 87 86 85
92 81 99 123 125 123 122 121 121 120 122 118 120 118 114 112 113 112 109 108 106 104 105 106 105 101 100 100 97 91 89 86 79 73 71 76 86 88 87 86 85 84 83
82 78 71 91 109 119 120 118 120 119 117 114 110 111 112 112 112 111 111 108 104 103 104 106 105 102 100 102 98 92 87 83 78 74 75 79 87 88 88 87 84 84 85
76 76 71 71 84 92 106 113 112 112 111 109 104 100 102 102 104 105 104 103 101 100 100 103 104 100 100 101 96 91 85 78 76 74 75 84 88 88 87 87 85 84 86
62 65 71 73 74 89 97 105 105 106 107 104 99 94 89 90 90 91 98 100 98 97 97 99 103 100 97 96 94 90 81 73 73 71 78 89 89 89 87 85 84 85 85
63 54 73 82 79 87 98 102 100 100 102 101 99 95 90 89 88 89 90 94 94 92 91 93 94 93 90 88 87 83 77 73 69 66 79 89 91 91 89 87 85 84 84
175 73 109 93 92 95 100 102 100 103 104 104 105 102 98 94 91 90 86 85 87 87 85 86 85 85 87 87 85 81 76 72 67 67 74 85 90 93 93 90 88 87 85
131 18 66 89 98 103 108 108 107 107 107 108 112 113 107 99 92 89 86 85 86 89 88 84 85 87 87 87 87 84 77 72 66 66 69 79 88 91 95 94 92 88 87
176 336 310 107 102 115 119 115 112 113 117 118 120 119 119 111 104 99 92 90 90 92 94 91 88 87 85 84 83 84 79 74 70 66 65 69 79 87 92 94 92 89 86
199 214 302 142 118 122 127 127 127 123 122 118 119 121 123 123 116 108 99 93 93 97 99 98 95 92 87 86 80 78 76 73 71 69 66 65 67 75 88 93 93 91 87
202 202 192 183 130 128 131 136 136 135 131 123 120 118 115 122 123 119 112 102 100 106 106 102 97 91 87 84 75 71 71 69 68 66 64 63 63 64 74 86 91 90 89
191 192 190 211 150 140 137 141 141 142 139 133 130 124 121 121 121 121 121 117 115 111 110 108 103 96 84 82 77 66 65 65 64 64 64 62 62 61 64 72 80 83 89
187 181 187 283 173 159 143 139 139 141 143 141 134 129 129 128 123 120 124 124 123 113 109 114 105 109 106 93 82 66 56 56 57 63 61 60 62 63 63 66 69 72 77
169 172 179 202 184 158 135 124 120 120 126 132 133 136 138 133 127 119 122 128 128 120 116 115 116 102 110 110 90 68 49 48 55 56 57 60 62 63 66 68 66 66 67
131 154 188 198 196 167 149 157 158 169 164 136 137 148 147 141 135 127 125 132 133 134 138 132 125 117 110 119 101 74 40 46 52 45 49 59 56 60 66 68 69 68 66
200 200 203 222 209 193 175 168 163 157 157 140 132 137 149 147 145 141 140 145 145 138 138 139 135 130 127 137 128 125 97 17 21 29 33 48 46 56 59 67 74 74 71
222 222 221 226 221 203 156 134 115 108 106 113 125 159 160 161 156 151 154 151 153 155 161 161 156 147 156 163 110 148 155 196 251 347 356 15 18 44 41 60 82 90 84
236 237 230 220 213 197 157 154 150 157 169 193 198 196 181 167 163 162 162 160 161 164 170 173 166 159 157 169 154 51 100 149 160 212 307 321 340 358 348 13 78 110 109
242 231 226 219 201 188 174 174 166 167 172 148 161 176 173 160 171 168 169 168 168 172 177 177 171 172 171 172 170 153 112 71 107 164 224 272 305 278 271 265 226 169 156
261 218 218 213 208 199 180 179 178 179 170 162 180 193 193 182 175 180 181 179 176 176 183 187 186 182 182 176 169 168 166 166 182 171 193 221 241 266 266 250 231 215 203
Height
1515 1517 1519 1521 1522 1524 1525 1526 1528 1529 1530 1531 1531 1532 1533 1534 1535 1536 1536 1537 1538 1539 1539 1540 1541 1541 1542 1543 1543 1544 1544 1545 1546 1546 1547 1548 1548 1549 1549 1550 1550 1551 1551
1514 1516 1518 1520 1522 1524 1525 1526 1528 1529 1530 1531 1532 1533 1533 1534 1535 1536 1537 1538 1539 1539 1540 1541 1542 1542 1543 1544 1544 1545 1546 1547 1547 1548 1549 1550 1550 1551 1551 1552 1552 1553 1554
1514 1516 1518 1520 1522 1524 1525 1526 1528 1529 1530 1531 1532 1533 1534 1535 1536 1537 1537 1538 1539 1540 1541 1542 1542 1543 1544 1545 1546 1546 1547 1548 1549 1550 1550 1551 1552 1553 1553 1554 1554 1555 1556
1514 1516 1518 1520 1522 1523 1525 1526 1528 1529 1530 1531 1532 1533 1534 1535 1536 1537 1538 1539 1540 1541 1542 1542 1543 1544 1545 1546 1547 1548 1549 1550 1551 1551 1552 1553 1554 1555 1555 1556 1556 1557 1557
1514 1516 1518 1520 1521 1523 1525 1526 1528 1529 1530 1531 1532 1533 1534 1535 1537 1537 1538 1539 1540 1541 1542 1543 1544 1544 1545 1546 1547 1549 1550 1551 1552 1553 1553 1554 1555 1556 1557 1557 1558 1559 1559
1514 1516 1518 1520 1521 1523 1524 1526 1527 1529 1530 1531 1532 1533 1535 1536 1537 1538 1539 1540 1541 1542 1542 1543 1544 1545 1546 1547 1548 1549 1551 1552 1553 1554 1555 1556 1557 1558 1558 1559 1559 1560 1561
1514 1516 1518 1519 1521 1522 1524 1526 1527 1528 1530 1531 1532 1533 1535 1536 1537 1538 1539 1540 1541 1542 1543 1543 1544 1545 1546 1547 1548 1550 1552 1553 1554 1555 1556 1557 1558 1559 1559 1560 1561 1562 1562
1514 1515 1517 1519 1520 1522 1523 1525 1527 1528 1529 1531 1532 1533 1535 1536 1537 1538 1539 1540 1541 1542 1543 1543 1544 1545 1546 1547 1549 1551 1552 1554 1555 1556 1557 1558 1559 1560 1561 1562 1562 1563 1564
1513 1515 1517 1518 1520 1521 1523 1525 1526 1528 1529 1531 1532 1533 1534 1536 1537 1538 1539 1540 1541 1542 1542 1543 1544 1544 1546 1547 1549 1551 1553 1555 1556 1557 1557 1559 1561 1561 1562 1563 1564 1564 1565
1513 1514 1516 1517 1519 1520 1522 1524 1525 1527 1529 1530 1532 1533 1534 1535 1537 1538 1539 1540 1541 1541 1542 1543 1544 1545 1546 1548 1550 1552 1554 1556 1557 1557 1559 1561 1562 1563 1564 1564 1565 1566 1566
1512 1513 1514 1516 1517 1519 1521 1523 1524 1526 1528 1529 1531 1532 1534 1535 1536 1538 1539 1540 1541 1541 1542 1543 1544 1545 1547 1549 1551 1553 1554 1556 1557 1558 1560 1562 1563 1564 1565 1565 1566 1567 1568
1509 1511 1513 1515 1516 1518 1520 1522 1523 1525 1527 1529 1530 1532 1533 1535 1536 1537 1539 1540 1541 1542 1542 1543 1544 1546 1548 1549 1551 1553 1555 1556 1557 1559 1561 1562 1563 1564 1565 1566 1567 1568 1569
1508 1510 1511 1513 1515 1516 1518 1520 1522 1524 1526 1528 1529 1531 1533 1534 1535 1537 1538 1540 1541 1542 1543 1544 1545 1546 1548 1550 1551 1553 1555 1557 1558 1559 1561 1563 1564 1565 1566 1567 1568 1569 1570
1506 1508 1510 1511 1513 1515 1517 1519 1520 1522 1524 1526 1528 1530 1532 1533 1535 1536 1538 1539 1540 1542 1543 1545 1546 1547 1548 1550 1552 1553 1555 1557 1558 1559 1561 1563 1564 1565 1566 1567 1568 1569 1570
1504 1506 1508 1510 1511 1513 1515 1517 1519 1521 1523 1525 1527 1529 1531 1532 1533 1535 1537 1539 1540 1542 1543 1545 1546 1547 1548 1550 1552 1553 1555 1557 1558 1559 1561 1563 1564 1565 1566 1567 1568 1569 1570
1502 1504 1505 1507 1509 1511 1513 1515 1517 1519 1521 1523 1525 1527 1529 1530 1532 1534 1536 1538 1539 1541 1542 1544 1546 1547 1549 1550 1551 1553 1555 1556 1558 1559 1561 1563 1564 1565 1566 1567 1568 1569 1569
1500 1501 1503 1505 1507 1509 1511 1513 1515 1517 1519 1521 1523 1525 1527 1529 1531 1533 1535 1536 1538 1540 1542 1544 1545 1547 1549 1550 1551 1553 1555 1556 1557 1559 1561 1562 1564 1565 1566 1567 1568 1569 1569
1498 1499 1500 1502 1504 1506 1508 1510 1512 1515 1517 1519 1521 1523 1525 1527 1529 1531 1533 1535 1537 1539 1541 1542 1544 1546 1548 1549 1551 1552 1554 1555 1557 1558 1560 1561 1563 1564 1565 1566 1567 1568 1569
1495 1496 1498 1499 1501 1503 1505 1508 1510 1512 1514 1516 1519 1521 1523 1525 1527 1529 1531 1533 1535 1537 1539 1541 1543 1545 1546 1548 1549 1551 1553 1554 1556 1558 1559 1560 1562 1563 1564 1565 1566 1567 1568
1492 1494 1495 1497 1498 1500 1502 1505 1507 1509 1512 1514 1516 1518 1520 1522 1525 1527 1529 1531 1533 1535 1537 1539 1541 1543 1545 1547 1548 1550 1552 1553 1555 1556 1557 1559 1560 1562 1563 1564 1565 1566 1566
1489 1490 1492 1493 1494 1496 1497 1500 1502 1505 1508 1511 1513 1515 1518 1520 1522 1524 1526 1529 1530 1532 1535 1537 1539 1541 1543 1545 1547 1549 1551 1552 1553 1554 1556 1557 1558 1560 1561 1562 1563 1564 1564
1486 1487 1489 1490 1491 1492 1494 1496 1499 1502 1505 1508 1511 1512 1514 1517 1519 1522 1524 1526 1528 1530 1532 1534 1536 1538 1540 1542 1544 1546 1548 1551 1551 1552 1554 1555 1556 1557 1558 1559 1561 1561 1562
1482 1484 1485 1487 1488 1489 1491 1494 1496 1498 1501 1504 1506 1509 1511 1513 1516 1518 1521 1523 1525 1527 1529 1531 1533 1535 1537 1540 1542 1544 1545 1546 1548 1550 1551 1552 1553 1554 1556 1557 1558 1559 1560
1479 1481 1482 1483 1485 1486 1488 1490 1491 1493 1495 1499 1502 1505 1508 1510 1512 1515 1518 1520 1523 1524 1526 1528 1530 1532 1534 1536 1538 1540 1542 1543 1544 1545 1548 1549 1550 1551 1552 1553 1554 1555 1556
1477 1478 1479 1480 1482 1483 1484 1486 1488 1490 1493 1496 1499 1502 1504 1506 1509 1511 1514 1517 1519 1521 1523 1525 1527 1529 1531 1532 1534 1536 1538 1540 1541 1542 1543 1545 1547 1548 1549 1550 1551 1552 1553
1474 1475 1476 1477 1478 1480 1481 1483 1486 1487 1489 1492 1495 1497 1500 1502 1505 1507 1510 1513 1515 1517 1520 1521 1523 1525 1527 1529 1531 1533 1534 1536 1537 1538 1539 1540 1542 1544 1545 1546 1547 1548 1549